STARLINK-32408, 62054

Orbit data source: Space-Track

STARLINK-32408, 62054 is a payload satellite owned by SpaceX/Seattle (US) in LEO that was launched on Thu, 21 Nov 2024 UTC via an FALCON 9 launch vehicle from the Air Force Eastern Test Range (AFETR). Payload-class satellites include a variety of spacecraft equipped with specific instruments for various scientific and technological missions. These include communications satellites like Starlink; space stations such as the ISS; scientific satellites like the Hubble; Earth observation satellites from companies like Planet Labs, Umbra, and HawkEye 360; GPS; miniature CubeSats for education and research; and military/defense satellites.

Loading next visibility...
Identifier
62054, 2024-216Y
Orbit
LEO
Country
Flag of USUS
Related business
Manufacturer
SpaceX/Seattle
Mission
Operational Commercial Communications
Bus & Motor
STARLINK V2M, Unknown motor
Mass
730 kg wet, ~700 kg dry
Launch date (UTC)
2024-11-21 (10 months ago)
Launch vehicle
FALCON 9
Launch site
Air Force Eastern Test Range (AFETR)
Object type
Payload
Rocket body
Debris
Shape & HBR
Box + 2 Pan, 14.5 m
Radar Cross Section
36.964 m², Large (>1 m²)

Expand to show TLE details & history
Last TLE update: 1 day ago

TLE from 1 day ago
0 STARLINK-32408
1 62054U 24216Y   25260.14208464  .00031642  00000-0  11556-2 0  9992
2 62054  42.9998 156.4370 0001483 293.7465  66.3231 15.27547700 47345
Epoch: 2025-09-17T03:24Z
TLE epoch observation values (Epoch: 2025-09-17T03:24:36.112Z)
Latitude
-0.00004°
Longitude
108.96421°
Altitude
482.513 km
Speed
7.626 km/s
True Right ascension
10h 25m 44s
True Declination
0° 00' 00"
Sunlit
Object was in daylight at epoch
Visualization orbit readout
Latitude
Unknown
Longitude
Unknown
Altitude
Unknown
Speed
Unknown
Apparent Right ascension
Unknown
Apparent Declination
Unknown
Sunlit
N/A
Visualization observer readout
Local Sidereal Time
01:02:56
Azimuth
Unknown
Elevation
Unknown
Doppler factor
Unknown
Orbital elements
Apogee altitude
486.109 km
Perigee altitude
484.073 km
Semi-major axis
6,863.228 km
Eccentricity
0.00015
Inclination
42.9998°
RAAN
156.437°
Arg. of periapsis
293.7465°
True anomaly
66.33866°
Mean anomaly
66.3231°
Eccentric anomaly
66.33088°
Mean motion
3.81725 °/min
Orbital period
94.31 mins
BSTAR
0.0011556
Loading maneuver chart data...
Computing Atmospheric mass density...
Loading historical data...
Loading historical data...
Loading historical data...
Loading historical data...
Loading historical data...
Loading historical data...
Loading historical data...

Documentation

Showing up to 5 results
|